• In Uzbekistan
  • List of Countries
  • For 7 days
  • Water Temperature
  • Satellite Maps
  • Weather Map
  • Weather Widgets
  • user-avatar
    Login

    Hourly Weather Debrecen

    Today, 23 October, Monday

    Time Temperature Precipitation Wind Pressure Humidity
    00:00 +12°C° 0.8 mm 4 mps 746 mmHg 84%
    01:00 +12°C° 0.8 mm 5 mps 745 mmHg 84%
    02:00 +12°C° 1.6 mm 5 mps 745 mmHg 85%
    03:00 +11°C° 1.6 mm 4 mps 744 mmHg 86%
    04:00 +11°C° 1.6 mm 4 mps 743 mmHg 87%
    05:00 +11°C° 3.3 mm 4 mps 743 mmHg 88%
    06:00 +10°C° 3.3 mm 5 mps 743 mmHg 89%
    07:00 +10°C° 3.3 mm 5 mps 743 mmHg 90%
    08:00 +10°C° 1.2 mm 5 mps 743 mmHg 89%
    09:00 +10°C° 1.2 mm 5 mps 743 mmHg 88%
    10:00 +10°C° 1.2 mm 5 mps 743 mmHg 87%
    11:00 +12°C° 0.3 mm 5 mps 743 mmHg 84%
    12:00 +12°C° 0.3 mm 5 mps 743 mmHg 82%
    13:00 +13°C° 0.3 mm 4 mps 743 mmHg 79%
    14:00 +12°C° 0.1 mm 4 mps 743 mmHg 79%
    15:00 +12°C° 0.1 mm 4 mps 743 mmHg 80%
    16:00 +12°C° 0.1 mm 3 mps 743 mmHg 80%
    17:00 +12°C° 0 mm 3 mps 744 mmHg 81%
    18:00 +11°C° 0 mm 3 mps 744 mmHg 83%
    19:00 +11°C° 0 mm 3 mps 744 mmHg 85%
    20:00 +10°C° 0 mm 4 mps 745 mmHg 85%
    21:00 +10°C° 0 mm 4 mps 745 mmHg 86%
    22:00 +10°C° 0 mm 4 mps 746 mmHg 86%
    23:00 +10°C° 0 mm 4 mps 746 mmHg 85%

    Tomorrow, 24 October, Tuesday

    Time Temperature Precipitation Wind Pressure Humidity
    00:00 +8°C° 0 mm 5 mps 746 mmHg 84%
    01:00 +8°C° 0 mm 5 mps 746 mmHg 83%
    02:00 +8°C° 0 mm 6 mps 747 mmHg 82%
    03:00 +7°C° 0 mm 6 mps 747 mmHg 81%
    04:00 +6°C° 0 mm 7 mps 747 mmHg 80%
    05:00 +6°C° 0 mm 7 mps 747 mmHg 79%
    06:00 +6°C° 0 mm 8 mps 748 mmHg 78%
    07:00 +6°C° 0 mm 8 mps 748 mmHg 77%
    08:00 +8°C° 0 mm 9 mps 749 mmHg 73%
    09:00 +10°C° 0 mm 9 mps 749 mmHg 69%
    10:00 +11°C° 0 mm 10 mps 750 mmHg 65%
    11:00 +11°C° 0 mm 10 mps 750 mmHg 62%
    12:00 +12°C° 0 mm 10 mps 750 mmHg 60%
    13:00 +13°C° 0 mm 9 mps 750 mmHg 57%
    14:00 +12°C° 0 mm 9 mps 751 mmHg 59%
    15:00 +11°C° 0 mm 9 mps 751 mmHg 61%
    16:00 +10°C° 0 mm 8 mps 752 mmHg 63%
    17:00 +10°C° 0 mm 8 mps 752 mmHg 65%
    18:00 +9°C° 0 mm 8 mps 753 mmHg 67%
    19:00 +7°C° 0 mm 8 mps 754 mmHg 68%
    20:00 +8°C° 0 mm 7 mps 754 mmHg 70%
    21:00 +7°C° 0 mm 6 mps 754 mmHg 71%
    22:00 +7°C° 0 mm 6 mps 755 mmHg 72%
    23:00 +6°C° 0 mm 5 mps 755 mmHg 73%

    Day after tomorrow, 25 October, Wednesday

    Time Temperature Precipitation Wind Pressure Humidity
    00:00 +6°C° 0 mm 5 mps 755 mmHg 74%
    01:00 +6°C° 0 mm 4 mps 756 mmHg 76%
    02:00 +5°C° 0 mm 4 mps 756 mmHg 77%
    03:00 +5°C° 0 mm 4 mps 756 mmHg 78%
    04:00 +5°C° 0 mm 4 mps 756 mmHg 79%
    05:00 +5°C° 0 mm 4 mps 756 mmHg 79%
    06:00 +5°C° 0 mm 3 mps 756 mmHg 79%
    07:00 +5°C° 0 mm 3 mps 757 mmHg 79%
    08:00 +7°C° 0 mm 3 mps 757 mmHg 73%
    09:00 +9°C° 0 mm 3 mps 757 mmHg 67%
    10:00 +10°C° 0 mm 3 mps 757 mmHg 61%
    11:00 +12°C° 0 mm 2 mps 757 mmHg 58%
    12:00 +13°C° 0 mm 2 mps 757 mmHg 55%
    13:00 +14°C° 0 mm 2 mps 757 mmHg 52%
    14:00 +14°C° 0 mm 2 mps 757 mmHg 55%
    15:00 +13°C° 0 mm 1 mps 757 mmHg 57%
    16:00 +13°C° 0 mm 1 mps 757 mmHg 60%
    17:00 +12°C° 0 mm 1 mps 757 mmHg 62%
    18:00 +11°C° 0 mm 1 mps 757 mmHg 65%
    19:00 +10°C° 0 mm 1 mps 758 mmHg 67%
    20:00 +10°C° 0 mm 1 mps 758 mmHg 68%
    21:00 +9°C° 0 mm 2 mps 758 mmHg 68%
    22:00 +9°C° 0 mm 2 mps 758 mmHg 69%
    23:00 +8°C° 0 mm 2 mps 758 mmHg 70%

    26 October, Thursday

    Time Temperature Precipitation Wind Pressure Humidity
    00:00 +8°C° 0 mm 2 mps 758 mmHg 72%
    01:00 +8°C° 0 mm 2 mps 758 mmHg 73%
    02:00 +8°C° 0 mm 3 mps 758 mmHg 73%
    03:00 +8°C° 0 mm 3 mps 758 mmHg 74%
    04:00 +8°C° 0 mm 3 mps 758 mmHg 74%
    05:00 +9°C° 0 mm 3 mps 758 mmHg 74%
    06:00 +9°C° 0 mm 3 mps 758 mmHg 75%
    07:00 +9°C° 0 mm 3 mps 758 mmHg 75%
    08:00 +10°C° 0 mm 3 mps 758 mmHg 73%
    09:00 +12°C° 0 mm 3 mps 758 mmHg 71%
    10:00 +13°C° 0 mm 3 mps 758 mmHg 68%
    11:00 +14°C° 0 mm 4 mps 758 mmHg 67%
    12:00 +15°C° 0 mm 4 mps 757 mmHg 65%
    13:00 +17°C° 0 mm 4 mps 757 mmHg 64%
    14:00 +15°C° 0 mm 4 mps 757 mmHg 67%
    15:00 +16°C° 0 mm 3 mps 756 mmHg 69%
    16:00 +16°C° 0 mm 3 mps 756 mmHg 72%
    17:00 +14°C° 0 mm 3 mps 756 mmHg 74%
    18:00 +14°C° 0 mm 4 mps 756 mmHg 77%
    19:00 +13°C° 0 mm 4 mps 755 mmHg 79%
    20:00 +13°C° 0 mm 4 mps 755 mmHg 79%
    21:00 +13°C° 0 mm 5 mps 755 mmHg 79%
    22:00 +12°C° 0 mm 5 mps 755 mmHg 79%
    23:00 +12°C° 0 mm 5 mps 754 mmHg 79%

    27 October, Friday

    Time Temperature Precipitation Wind Pressure Humidity
    00:00 +12°C° 0 mm 5 mps 754 mmHg 78%
    01:00 +12°C° 0 mm 5 mps 753 mmHg 78%
    02:00 +12°C° 0 mm 5 mps 753 mmHg 78%
    03:00 +10°C° 0 mm 5 mps 752 mmHg 78%
    04:00 +10°C° 0 mm 5 mps 752 mmHg 78%
    05:00 +10°C° 0 mm 5 mps 751 mmHg 78%
    06:00 +10°C° 0 mm 5 mps 751 mmHg 78%
    07:00 +10°C° 0 mm 6 mps 750 mmHg 78%
    08:00 +11°C° 0 mm 6 mps 750 mmHg 74%
    09:00 +14°C° 0 mm 6 mps 749 mmHg 70%
    10:00 +15°C° 0 mm 6 mps 749 mmHg 66%
    11:00 +16°C° 0 mm 6 mps 748 mmHg 64%
    12:00 +16°C° 0 mm 6 mps 748 mmHg 63%
    13:00 +17°C° 0 mm 6 mps 747 mmHg 61%
    14:00 +17°C° 0.4 mm 6 mps 746 mmHg 63%
    15:00 +16°C° 0.4 mm 6 mps 746 mmHg 66%
    16:00 +16°C° 0.4 mm 6 mps 745 mmHg 68%
    17:00 +15°C° 0.3 mm 6 mps 745 mmHg 70%
    18:00 +15°C° 0.3 mm 6 mps 745 mmHg 72%
    19:00 +14°C° 0.3 mm 6 mps 745 mmHg 73%
    20:00 +13°C° 0.2 mm 6 mps 746 mmHg 71%
    21:00 +12°C° 0.2 mm 5 mps 746 mmHg 69%
    22:00 +11°C° 0.2 mm 4 mps 747 mmHg 67%
    23:00 +10°C° 0 mm 4 mps 747 mmHg 69%

    28 October, Saturday

    Time Temperature Precipitation Wind Pressure Humidity
    00:00 +8°C° 0 mm 4 mps 747 mmHg 71%
    01:00 +9°C° 0 mm 3 mps 748 mmHg 73%
    02:00 +9°C° 0 mm 3 mps 748 mmHg 75%
    03:00 +8°C° 0 mm 3 mps 748 mmHg 76%
    04:00 +7°C° 0 mm 4 mps 748 mmHg 78%
    05:00 +7°C° 0 mm 4 mps 748 mmHg 78%
    06:00 +7°C° 0 mm 4 mps 748 mmHg 77%
    07:00 +7°C° 0 mm 4 mps 748 mmHg 77%
    08:00 +8°C° 0 mm 5 mps 747 mmHg 71%
    09:00 +9°C° 0 mm 6 mps 747 mmHg 65%
    10:00 +10°C° 0 mm 7 mps 747 mmHg 59%
    11:00 +10°C° 0.1 mm 7 mps 746 mmHg 59%
    12:00 +11°C° 0.1 mm 8 mps 746 mmHg 58%
    13:00 +11°C° 0.1 mm 8 mps 745 mmHg 57%
    14:00 +11°C° 0.1 mm 8 mps 744 mmHg 57%
    15:00 +11°C° 0.1 mm 8 mps 744 mmHg 57%
    16:00 +11°C° 0.1 mm 8 mps 743 mmHg 57%
    17:00 +11°C° 0.1 mm 8 mps 743 mmHg 58%
    18:00 +10°C° 0.1 mm 8 mps 743 mmHg 60%
    19:00 +10°C° 0.1 mm 9 mps 743 mmHg 61%
    20:00 +10°C° 0.4 mm 8 mps 742 mmHg 62%
    21:00 +10°C° 0.4 mm 8 mps 742 mmHg 63%
    22:00 +10°C° 0.4 mm 8 mps 742 mmHg 64%
    23:00 +10°C° 0.5 mm 8 mps 741 mmHg 64%
    Show more